Weather History for Imperial, NE

Change the Weather History Date:

Saturday, September 13, 2014

  Actual Average Record
Temperature  
Mean Temperature 49 °F 66 °F  
Max Temperature 64 °F 81 °F 101 °F (1990)
Min Temperature 34 °F 51 °F 32 °F (1989)
Degree Days  
Heating Degree Days 16 2  
Month to date heating degree days 75 21  
Cooling Degree Days 0 3  
Month to date cooling degree days 46 60  
Year to date cooling degree days 892 926  
Moisture  
Dew Point 39 °F    
Average Humidity 72    
Maximum Humidity 96    
Minimum Humidity 48    
Precipitation  
Precipitation 0.00 in 0.04 in 0.72 in (1991)
Sea Level Pressure  
Sea Level Pressure 30.23 in    
Wind  
Wind Speed 11 mph (SSE)    
Max Wind Speed 22 mph    
Max Gust Speed 30 mph    
Visibility 10 miles    
Events      
T = Trace of Precipitation, MM = Missing Value Source: NWS Daily Summary

Daily Weather History Graph

Daily Weather History Graph

Search for Another Location

Airport:

Trip Planner

Search our weather history database for the weather conditions in past years. The results will help you decide how hot, cold, wet, or windy it might be!

Date:

Astronomy

Sep. 13, 2014 Rise Set
Actual Time 6:25 AM MDT 6:58 PM MDT
Civil Twilight 5:57 AM MDT 7:26 PM MDT
Nautical Twilight 5:25 AM MDT 7:58 PM MDT
Astronomical Twilight 4:52 AM MDT 8:31 PM MDT
Moon 10:04 PM MDT (9/13) 11:35 AM MDT (9/13)
Length of Visible Light 13h 28m
Length of Day
12h 33m
Waning Gibbous, 73% of the Moon is Illuminated
Sep 13
Waning Gibbous
Sep 15
Last Quarter
Sep 24
New
Oct 1
First Quarter
Oct 8
Full

Hourly Weather History & Observations

Time (MDT) Temp. Windchill Dew Point Humidity Pressure Visibility Wind Dir Wind Speed Gust Speed Precip Events Conditions
12:53 AM 36.0 °F 29.0 °F 32.0 °F 86% 30.40 in 10.0 mi South 9.2 mph - N/A   Clear
1:53 AM 36.0 °F 28.5 °F 32.0 °F 86% 30.37 in 10.0 mi South 10.4 mph - N/A   Clear
2:53 AM 36.0 °F 28.5 °F 32.0 °F 86% 30.34 in 10.0 mi South 10.4 mph - N/A   Clear
3:53 AM 36.0 °F 27.5 °F 32.0 °F 86% 30.31 in 10.0 mi South 12.7 mph - N/A   Clear
4:53 AM 35.1 °F 27.9 °F 32.0 °F 89% 30.29 in 10.0 mi South 9.2 mph - N/A   Clear
5:53 AM 34.0 °F 28.8 °F 32.0 °F 92% 30.29 in 10.0 mi South 5.8 mph - N/A   Clear
6:43 AM 35.1 °F 26.9 °F 33.1 °F 92% 30.24 in 10.0 mi South 11.5 mph - N/A   Mostly Cloudy
6:53 AM 36.0 °F 28.0 °F 33.1 °F 89% 30.27 in 10.0 mi South 11.5 mph - N/A   Overcast
7:53 AM 41.0 °F 33.5 °F 37.0 °F 86% 30.27 in 10.0 mi South 13.8 mph - N/A   Overcast
8:04 AM 41.0 °F 32.8 °F 37.0 °F 86% 30.22 in 10.0 mi South 16.1 mph - N/A   Overcast
8:53 AM 43.0 °F 35.7 °F 37.9 °F 82% 30.27 in 10.0 mi South 15.0 mph 23.0 mph N/A   Overcast
9:53 AM 45.0 °F 37.6 °F 37.9 °F 76% 30.26 in 10.0 mi SSW 17.3 mph 26.5 mph N/A   Overcast
10:06 AM 46.0 °F 38.5 °F 39.0 °F 76% 30.22 in 10.0 mi South 19.6 mph 25.3 mph N/A   Overcast
10:53 AM 48.0 °F - 39.9 °F 74% 30.24 in 10.0 mi South 18.4 mph 26.5 mph N/A   Overcast
11:53 AM 50.0 °F - 41.0 °F 71% 30.22 in 10.0 mi South 18.4 mph - N/A   Overcast
12:53 PM 54.0 °F - 42.1 °F 64% 30.19 in 10.0 mi South 19.6 mph 25.3 mph N/A   Overcast
1:20 PM 55.9 °F - 42.1 °F 60% 30.17 in 10.0 mi South 16.1 mph 25.3 mph N/A   Scattered Clouds
1:53 PM 57.0 °F - 42.1 °F 57% 30.18 in 10.0 mi South 10.4 mph - N/A   Clear
2:53 PM 61.0 °F - 43.0 °F 52% 30.15 in 10.0 mi South 12.7 mph 17.3 mph N/A   Clear
3:53 PM 63.0 °F - 43.0 °F 48% 30.14 in 10.0 mi South 6.9 mph - N/A   Clear
4:53 PM 63.0 °F - 44.1 °F 50% 30.13 in 10.0 mi SSE 9.2 mph - N/A   Clear
5:53 PM 62.1 °F - 44.1 °F 52% 30.14 in 10.0 mi SSE 6.9 mph - N/A   Clear
6:53 PM 57.0 °F - 46.0 °F 67% 30.15 in 10.0 mi ESE 6.9 mph - N/A   Clear
7:53 PM 52.0 °F - 45.0 °F 77% 30.17 in 10.0 mi ESE 5.8 mph - N/A   Clear
8:53 PM 48.0 °F - 44.1 °F 86% 30.19 in 10.0 mi ESE 6.9 mph - N/A   Clear
9:53 PM 46.9 °F - 43.0 °F 86% 30.19 in 10.0 mi SE 8.1 mph - N/A   Clear
10:53 PM 46.9 °F - 44.1 °F 90% 30.19 in 10.0 mi ESE 6.9 mph - N/A   Clear
11:53 PM 46.9 °F - 43.0 °F 86% 30.18 in 10.0 mi ESE 5.8 mph - N/A   Clear